Location: Radomski Observatory
(40.2854°N, 79.5145°W)
Time: 21:56:59
(UTC-05:00)

Daily predictions for brighter satellites

Satellite Brightness Start Highest point End
(mag) Time Altitude Azimuth Time Altitude Azimuth Time Altitude Azimuth
Cosmos 540 Rocket 3.6 17:48:37 10° SSW 17:53:47 88° WNW 17:59:00 10° NNE
Aureole 2 Rocket 2.7 17:50:17 10° S 17:54:01 69° ESE 17:58:04 10° NNE
CORIOLIS 4.2 17:52:07 10° SSE 17:57:28 88° E 18:02:52 10° NNW
Cosmos 1515 Rocket 4.2 17:54:27 10° NNW 17:58:52 63° W 18:03:14 10° S
USA 215 4.0 17:55:11 10° E 18:00:54 33° NNE 18:06:37 10° NW
Cosmos 2058 2.9 17:57:06 10° S 18:01:08 59° E 18:05:10 10° NNE
Cosmos 1980 4.1 17:56:17 10° SSW 18:01:55 68° WNW 18:07:36 10° NNE
Lacrosse 5 4.1 18:02:11 10° NNW 18:04:01 12° N 18:05:50 10° NNE
Cosmos 1805 Rocket 4.1 18:00:41 10° SSE 18:04:49 38° E 18:08:58 10° NNE
Cosmos 1461 2.9 18:03:14 10° SSW 18:07:24 65° ESE 18:11:27 10° NE
SKYMED 2 3.8 18:03:43 10° NNE 18:07:57 49° E 18:12:10 10° S
Meteor 1-11 4.3 18:07:54 10° S 18:13:36 82° E 18:19:23 10° N
Cosmos 1626 2.8 18:10:34 10° SSE 18:13:57 33° E 18:17:21 10° NNE
Sich 1 3.7 18:13:52 10° SSE 18:17:52 34° E 18:21:53 10° NNE
Cosmos 2219 Rocket 3.8 18:14:00 10° WSW 18:19:01 33° WNW 18:24:04 10° N
CZ-2C R/B 3.9 18:15:15 10° SSW 18:19:54 40° W 18:24:27 10° NNW
Lacrosse 5 rocket 2.2 18:17:00 10° NW 18:20:41 50° SW 18:24:33 10° SSE
Cosmos 1356 Rocket 3.7 18:17:25 10° SSE 18:21:11 41° E 18:24:58 10° NNE
ALOS 3.5 18:21:05 10° ESE 18:24:23 19° ENE 18:27:42 10° NNE
Cosmos 2333 Rocket 3.6 18:20:37 10° SW 18:25:48 37° WNW 18:31:02 10° N
Cosmos 1633 Rocket 3.5 18:24:06 10° SSE 18:28:11 39° E 18:32:17 10° NNE
Cosmos 1726 3.9 18:25:11 10° NNW 18:28:41 37° W 18:32:10 10° SSW
CENTAUR R/B 4.5 18:27:39 10° W 18:32:28 22° NNW 18:37:45 10° NNE
Cosmos 2278 Rocket 3.6 18:28:34 10° NW 18:33:55 43° WSW 18:39:13 10° S
Coronas F rocket 2.5 18:32:16 10° SSE 18:33:36 21° ESE 18:33:36 21° ESE
Cosmos 1455 2.4 18:32:42 10° N 18:36:24 47° E 18:40:05 10° SSE
FAST Rocket 3.8 18:36:03 10° S 18:38:37 63° E 18:41:31 10° NNE
USA 229 DEB 3.8 18:34:53 10° SSW 18:41:31 55° ESE 18:47:09 15° NE
USA 229 3.8 18:35:00 10° SSW 18:41:37 55° ESE 18:47:12 15° NE
Abrixas 4.2 18:39:26 10° WNW 18:41:51 23° NNW 18:42:57 19° NNE
Cosmos 1703 3.5 18:40:53 10° SSW 18:44:45 69° W 18:48:39 10° N
Cosmos 1184 Rocket 2.7 18:42:54 10° S 18:46:12 65° E 18:48:43 16° NNE
SJ-6B 3.0 18:44:42 10° SSE 18:48:41 54° ENE 18:52:45 10° N
Spot 2 Rocket 4.1 18:44:58 10° SE 18:49:24 32° ENE 18:53:50 10° N
Iridium 4 Rocket 3.3 18:48:48 10° SSE 18:53:03 44° E 18:57:05 10° NNE
Cosmos 1707 Rocket 3.7 18:50:02 10° N 18:54:22 75° W 18:58:41 10° S
COSMO-SKYMED 1 3.6 18:51:48 10° N 18:55:57 46° WNW 19:00:07 10° SW
SL-19 R/B 4.4 18:51:12 10° SE 18:56:49 51° ENE 19:02:12 10° N
Cosmos 2237 Rocket 4.1 18:52:40 10° WSW 18:57:23 27° NW 19:02:10 10° N
Cosmos 2369 Rocket 3.3 18:57:01 10° N 19:01:00 24° NE 19:01:00 24° NE
Cosmos 1666 Rocket 3.9 18:59:58 10° SSW 19:04:16 65° W 19:08:39 10° N
H-2A ROCKET BODY 4.0 18:38:59 10° WSW 19:04:41 43° SSW 19:09:18 18° SE
SL-16 R/B 3.0 19:00:03 10° SW 19:05:32 51° WNW 19:11:04 10° NNE
FREGAT/IRIS 2.6 19:04:16 10° S 19:07:18 84° WSW 19:10:23 10° NNW
Resurs 01 Rocket 1.7 19:12:15 34° SE 19:13:52 54° ENE 19:18:12 10° N
Cosmos 923 Rocket 3.8 19:08:57 10° S 19:14:08 74° ESE 19:16:59 27° NNE
Cosmos 1933 Rocket 3.5 19:11:26 10° S 19:15:48 60° E 19:16:31 52° NE
Cosmos 1680 Rocket 3.4 19:15:25 10° S 19:20:34 64° ESE 19:22:05 44° NE
Cosmos 1655 Rocket 4.2 19:16:11 10° SSE 19:22:12 46° E 19:24:06 36° NE
CZ-4C R/B 4.2 19:19:15 10° N 19:23:28 18° NNE 19:23:28 18° NNE
Lacrosse 4 Rocket 1.3 19:20:20 10° NNW 19:24:24 80° WSW 19:25:17 53° SSE
Cosmos 1627 Rocket 4.4 19:18:27 10° S 19:24:32 63° E 19:30:36 10° NNE
FENGYUN 3A 3.5 19:24:53 10° SSE 19:30:15 83° ENE 19:35:39 10° NNW
Tiangong 1 3.2 19:27:26 10° SW 19:28:39 21° SW 19:28:39 21° SW
Cosmos 1869 3.9 19:26:43 10° NNW 19:30:43 58° W 19:34:39 10° S
NOSS 3-1 (C) 3.6 19:27:43 10° S 19:32:52 47° SE 19:32:52 47° SE
Cosmos 1470 Rocket 3.7 19:33:00 10° SSW 19:37:20 70° W 19:38:14 53° NNW
Cosmos 1943 3.7 19:37:50 10° S 19:41:55 43° SSE 19:41:55 43° SSE
USA 215 3.2 19:40:52 41° SE 19:43:25 90° W 19:50:00 10° NW
Lacrosse 5 4.0 19:45:45 10° NNW 19:47:19 14° N 19:47:19 14° N
ATLAS 5 CENTAUR R/B 3.9 19:44:46 10° NNW 19:47:23 21° N 19:47:23 21° N
Cosmos 2026 Rocket 3.9 19:45:26 10° S 19:51:39 88° W 19:55:59 21° N
Cosmos 2112 Rocket 4.1 19:51:55 10° SSW 19:57:06 70° WNW 19:57:11 70° WNW
ALOS 3.4 19:57:04 10° S 20:01:30 43° W 20:05:57 10° NNW
Cosmos 1943 Rocket 4.3 20:01:49 10° N 20:02:44 14° N 20:02:44 14° N
Cosmos 2369 Rocket 4.0 20:40:27 10° NNW 20:42:51 25° NW 20:42:51 25° NW
